Temperature
27 28 29 29 29 28 28 28 27 26 25 26 26 25 24 22 21 21 20 20 19 19 18 18 17 17 17 17 17 17 17 17 17 16 16 15 15 14 14 14 13 13 12 12
28 29 29 28 28 27 27 27 26 25 25 25 25 24 24 22 22 21 21 20 20 19 18 18 17 17 17 17 17 17 17 17 16 16 16 15 15 14 14 13 12 12 12 12
28 29 28 28 28 27 27 27 27 25 24 25 24 23 23 22 21 21 21 20 20 20 19 18 18 18 17 17 17 17 17 17 16 16 15 15 14 14 14 13 12 12 11 11
29 29 28 28 28 28 27 27 26 25 25 25 24 24 23 23 22 22 21 21 20 20 20 19 19 18 18 18 17 17 17 17 16 16 15 15 14 14 13 13 12 11 11 11
29 28 28 28 27 27 27 27 26 26 26 26 25 25 24 23 23 23 22 22 21 21 21 20 20 19 19 18 18 17 17 17 16 16 15 14 14 14 13 12 12 11 11 11
29 28 28 28 27 27 26 26 26 26 27 26 25 25 25 25 24 24 24 23 22 22 21 20 20 19 19 18 18 17 17 17 16 16 15 14 13 13 12 12 11 11 12 11
28 28 28 28 27 26 27 27 26 26 26 26 25 25 25 25 25 25 24 23 23 22 22 21 20 20 19 18 18 17 17 16 16 15 14 14 13 12 12 11 12 11 12 11
28 28 29 28 28 28 27 27 26 25 26 26 25 26 26 26 25 24 24 24 23 23 22 22 21 20 19 18 18 17 17 16 15 15 14 13 13 12 12 11 11 11 11 11
28 28 29 28 28 28 28 28 28 27 27 26 26 26 26 25 25 25 25 24 24 23 23 22 21 20 19 18 18 17 16 16 15 14 13 13 12 12 11 11 11 11 10 10
29 28 29 28 28 27 28 28 27 27 25 26 26 26 26 26 26 26 26 25 24 23 23 22 21 20 19 18 17 17 16 15 15 14 13 13 12 11 11 11 10 10 10 10
29 28 28 28 28 28 27 27 27 27 27 26 26 27 28 27 27 27 26 26 25 24 23 22 21 20 19 18 17 16 16 15 14 14 13 12 12 11 11 11 10 10 10 10
28 28 28 28 28 28 28 28 27 26 26 26 26 27 28 28 28 27 27 26 25 24 23 21 20 19 18 18 17 16 15 15 14 13 13 12 12 11 11 11 10 10 10 10
27 27 27 27 27 27 28 28 28 27 26 26 26 27 27 27 27 26 26 25 24 22 22 21 20 19 18 18 17 16 16 15 14 14 13 12 12 11 11 10 10 10 10 10
27 27 27 27 27 28 28 28 27 27 27 27 27 27 28 28 27 27 26 24 23 22 21 20 20 19 18 18 17 16 16 15 14 14 13 12 12 11 11 10 10 10 10 10
27 27 27 28 28 28 28 28 28 27 27 27 27 27 28 28 28 27 26 24 23 22 21 20 20 19 18 18 17 16 16 15 14 14 13 12 12 11 11 10 10 10 10 10
26 26 27 27 28 28 27 27 28 27 27 27 27 27 29 27 26 25 25 24 23 22 22 21 20 19 18 18 17 17 16 15 14 13 13 12 12 11 11 10 10 10 10 9
27 26 26 26 28 27 26 28 28 27 28 27 27 28 28 27 26 26 25 24 23 23 22 21 20 20 19 18 18 17 16 15 14 13 13 12 12 11 11 10 10 10 10 9
26 25 26 26 26 25 27 29 28 27 28 28 27 28 27 26 25 25 24 24 24 23 22 21 21 20 19 18 18 17 16 15 14 13 13 12 12 11 11 10 10 10 9 9
25 25 26 26 26 26 28 28 28 27 27 28 28 27 27 25 25 25 24 24 23 23 22 21 21 20 19 18 18 17 16 15 14 14 13 12 12 11 11 10 10 10 9 9
24 24 25 25 25 25 27 27 27 27 26 28 27 27 27 25 26 27 26 24 23 23 22 21 21 20 19 19 18 17 16 15 14 14 13 12 12 11 11 10 10 10 9 9
25 24 25 25 25 26 27 26 26 26 25 26 26 26 26 26 26 26 25 24 23 23 22 21 21 20 19 19 18 17 16 16 15 14 13 12 12 11 11 10 10 10 9 9
26 26 25 25 25 25 26 26 26 24 23 24 24 24 24 24 24 24 24 23 23 22 22 21 21 20 19 19 18 17 17 16 14 14 13 13 12 11 11 10 10 9 9 9
26 26 26 26 26 24 23 22 21 21 21 22 22 22 23 23 23 23 23 22 22 21 21 20 20 20 19 19 18 18 17 15 15 14 14 13 12 11 11 10 10 9 9 9
26 24 25 25 26 23 21 20 19 19 19 19 20 20 21 21 22 21 21 21 20 20 20 19 19 19 18 18 18 18 16 15 15 14 14 13 12 12 11 10 10 10 10 10
24 24 24 24 24 23 20 18 17 17 18 18 18 19 19 19 19 19 19 19 19 19 18 18 18 18 18 18 18 17 16 15 15 14 14 13 12 11 11 10 10 10 10 9
22 23 23 23 20 21 18 17 16 17 17 17 17 17 17 18 18 18 18 17 17 17 17 17 17 17 16 16 16 16 16 15 15 14 13 13 12 12 11 11 11 10 10 10
Wind_Speed
5 7 5 4 5 7 6 5 1 2 1 4 4 5 7 8 7 6 6 7 7 7 8 8 9 9 8 8 8 7 7 6 4 3 2 2 2 3 3 4 4 5 6 6
6 4 3 2 3 4 4 4 2 3 2 3 3 4 6 7 6 6 6 7 7 8 9 9 10 10 9 9 9 8 8 7 6 3 2 2 3 4 4 4 3 4 5 7
7 3 1 3 3 3 3 3 2 3 4 4 4 5 6 6 5 5 6 7 8 8 10 10 11 10 10 10 10 9 8 7 7 5 4 3 3 5 4 4 4 4 6 6
4 1 3 4 3 4 2 1 2 5 6 3 3 2 6 7 7 8 9 9 9 10 10 10 11 11 11 11 10 9 9 8 7 7 6 6 6 7 6 6 5 6 6 6
2 1 3 3 2 2 2 2 4 5 4 2 2 2 5 7 7 9 10 11 11 12 12 12 12 11 11 10 9 9 9 8 7 7 6 6 7 6 6 6 6 7 6 5
3 1 2 1 2 3 6 5 5 6 6 1 2 3 3 6 8 10 11 12 11 11 11 11 11 10 10 9 9 8 8 7 7 7 6 6 6 7 7 8 8 7 6 5
3 4 4 4 5 6 5 5 4 4 2 2 2 2 2 5 7 8 10 12 12 11 11 11 11 11 10 9 8 7 7 6 6 7 6 6 6 7 8 8 7 7 7 6
4 3 4 4 3 1 3 5 5 6 5 3 2 1 4 6 7 8 9 10 10 11 10 10 9 9 8 8 7 7 6 6 6 6 6 6 6 7 7 6 8 8 8 8
4 1 4 2 2 3 2 2 5 4 3 2 2 1 4 7 9 10 10 10 10 10 9 8 8 8 7 7 7 6 6 6 6 6 6 6 7 7 8 8 9 8 7 8
3 5 3 4 5 1 3 1 2 4 5 3 2 1 2 6 9 11 11 11 10 9 9 8 8 8 7 7 7 6 6 6 6 6 7 6 7 7 8 9 9 9 10 9
3 5 3 5 6 4 4 3 3 3 4 6 4 3 4 3 7 8 10 10 9 9 9 8 8 8 8 7 7 7 6 6 7 7 7 7 8 8 8 8 9 9 10 10
2 4 5 3 2 1 4 3 4 5 3 4 6 2 7 4 5 7 7 7 8 8 8 9 9 9 8 8 7 7 7 7 7 7 7 8 8 8 9 10 10 10 10 10
2 4 6 5 7 6 4 3 4 5 6 7 7 2 7 5 6 8 8 8 8 9 9 9 9 9 9 8 7 7 7 7 7 7 8 8 9 9 9 10 10 10 10 11
3 5 7 7 4 3 5 6 6 9 10 9 9 9 4 5 7 8 9 9 9 10 10 10 10 9 9 8 7 7 7 6 7 7 8 9 9 9 10 10 10 10 11 11
5 9 8 8 6 7 9 10 9 11 12 13 12 10 9 4 5 6 7 9 10 10 11 11 10 9 9 9 8 7 7 7 7 8 9 9 9 9 10 10 11 11 11 12
4 9 10 10 9 8 11 11 11 10 11 11 11 11 6 1 4 5 7 9 10 11 11 11 11 10 10 9 9 8 7 7 7 8 9 9 9 9 10 10 11 11 12 12
6 7 10 11 8 9 11 6 5 5 5 7 9 7 2 2 4 6 7 9 10 10 10 10 11 10 10 9 9 8 7 7 7 8 9 9 9 10 10 11 11 12 12 12
7 8 8 10 9 10 5 1 4 6 7 7 8 7 4 3 3 5 7 8 9 10 10 10 10 10 10 9 9 8 7 7 8 8 9 9 9 10 10 11 11 12 12 12
7 7 7 8 10 9 7 4 4 6 8 6 5 4 3 2 5 8 9 10 11 10 10 10 10 10 10 10 9 8 8 8 8 9 9 9 9 10 10 11 11 11 11 12
5 7 7 7 8 8 2 4 0 5 7 3 2 5 5 4 8 7 2 9 12 12 11 11 10 10 10 10 9 9 9 9 9 9 9 9 9 10 11 12 12 11 11 12
6 6 8 9 9 8 4 3 3 6 5 10 8 8 7 8 10 9 5 7 10 12 12 12 12 12 11 11 10 10 10 10 9 8 8 9 9 10 11 11 11 12 12 12
8 6 6 6 8 3 7 2 3 7 11 11 11 11 11 12 13 12 10 9 10 11 12 13 12 12 11 11 11 11 11 9 8 8 9 9 10 10 10 11 11 12 12 13
7 6 4 4 4 6 7 6 8 9 11 12 12 13 12 13 13 13 11 10 10 11 11 11 13 12 11 12 12 12 11 8 8 9 9 10 10 10 10 11 12 12 11 11
4 1 4 6 4 4 8 9 10 10 10 11 11 11 10 10 11 11 9 8 8 9 10 10 12 12 12 12 12 12 9 8 9 9 10 10 10 11 11 10 10 11 11 11
3 3 6 9 3 0 8 11 11 10 10 11 11 11 11 10 10 9 8 8 7 7 6 7 9 11 11 10 10 9 9 9 10 10 10 11 11 11 10 11 10 11 11 10
2 3 5 3 4 3 5 9 10 10 12 13 13 13 14 13 12 12 10 9 8 7 6 5 6 7 7 7 7 8 9 10 11 10 11 10 10 9 10 10 11 12 14 13
Wind_Direction
212 246 273 315 290 301 297 282 257 108 157 236 218 183 171 177 188 185 183 179 180 181 168 171 173 176 178 181 185 187 189 178 193 207 244 277 309 319 331 341 3 342 340 340
240 256 334 314 275 259 257 249 181 150 174 233 209 183 170 186 196 196 192 185 187 183 175 180 186 189 194 195 199 201 205 203 212 212 246 287 312 307 321 329 338 327 332 326
286 345 17 247 243 257 264 286 237 177 164 188 201 185 188 193 201 202 204 197 194 188 185 188 196 202 205 208 211 215 216 215 222 224 240 251 256 267 283 316 313 323 320 316
284 293 251 259 273 282 297 338 202 180 201 180 226 223 180 187 195 204 203 198 196 194 195 199 203 208 213 216 217 220 221 223 223 225 246 269 289 302 317 312 316 313 300 304
295 286 274 282 342 292 50 141 180 199 223 206 201 273 137 175 192 197 196 197 199 198 200 206 212 216 220 221 222 222 224 226 224 229 236 253 275 294 300 305 300 295 295 289
279 244 286 46 73 128 138 159 180 214 235 257 46 302 129 170 185 182 187 193 198 200 205 211 217 219 223 223 224 225 221 223 221 225 234 249 275 287 296 297 300 295 293 290
208 182 159 160 147 156 211 260 255 226 228 57 95 289 75 145 169 176 178 186 195 200 207 211 216 218 220 222 222 220 215 217 216 222 232 244 261 272 273 282 290 293 296 296
254 202 167 196 258 255 252 301 332 332 348 36 156 347 101 152 173 184 186 187 193 203 209 214 217 216 217 214 208 205 208 216 217 225 236 246 255 269 280 283 291 292 292 298
296 288 126 161 225 265 241 307 349 299 304 313 63 73 147 170 189 195 198 200 204 207 208 210 207 205 200 196 193 198 205 218 226 237 241 248 255 270 282 284 273 279 286 289
299 283 174 152 166 116 315 280 279 319 340 340 43 51 73 175 192 196 202 206 207 203 204 201 194 190 187 185 184 195 209 224 236 244 251 255 259 264 268 276 286 287 286 286
285 279 221 200 233 224 184 212 274 309 335 325 348 48 78 173 191 198 203 207 206 206 199 189 185 183 183 186 192 203 214 228 240 250 254 263 267 271 271 272 275 279 282 285
266 287 282 237 150 275 251 258 250 292 309 299 308 11 127 176 194 208 214 204 204 200 192 184 182 184 191 200 206 214 227 237 246 254 257 260 265 269 273 277 280 280 279 280
198 263 267 203 183 191 216 220 252 274 280 281 289 331 134 179 209 215 222 214 199 194 190 186 188 195 202 209 217 227 235 247 254 256 258 262 266 270 274 281 283 282 280 280
239 263 284 300 314 293 264 245 238 259 273 281 281 295 275 228 224 221 217 216 205 196 193 196 198 203 208 212 218 230 243 252 258 262 264 266 270 276 280 283 283 281 281 281
238 254 257 272 277 277 283 285 269 257 272 282 289 292 299 288 242 228 219 210 207 203 202 205 208 207 209 213 219 229 241 248 255 262 267 268 272 276 280 282 282 283 282 282
233 267 267 262 259 269 276 278 276 268 267 272 278 282 302 288 222 219 216 213 214 214 213 212 213 214 213 215 221 228 237 245 249 259 268 272 276 278 280 283 284 284 284 284
235 249 260 267 268 270 268 265 270 268 267 276 284 304 350 266 231 234 230 226 228 227 222 219 217 217 216 216 218 225 234 242 249 258 266 272 275 278 282 286 288 287 288 286
239 248 258 268 269 264 277 194 271 282 287 280 281 288 276 272 267 249 242 239 235 231 227 222 221 216 213 213 212 219 229 238 251 259 267 272 275 280 284 286 287 288 288 287
230 231 254 264 262 259 257 218 239 271 291 298 287 281 259 237 254 247 225 227 234 233 228 224 222 218 211 210 209 214 229 241 252 261 268 273 277 281 283 285 288 289 288 286
188 219 244 251 269 270 295 79 92 269 273 19 323 295 284 226 278 303 224 214 226 229 225 219 216 213 204 205 204 214 231 242 252 263 269 274 276 277 280 285 288 289 286 283
203 209 235 250 258 264 34 64 214 259 353 0 331 310 292 262 275 304 280 236 229 228 224 217 214 212 208 200 200 215 232 243 252 261 267 269 271 272 274 280 284 285 284 286
250 244 236 252 261 282 62 17 324 340 336 330 322 311 299 284 279 281 274 258 245 237 229 218 213 215 207 199 202 218 231 241 250 256 261 265 268 272 277 278 280 282 283 283
244 284 289 274 299 43 35 11 355 340 325 324 320 315 306 292 287 286 279 270 260 250 242 228 221 218 208 201 206 223 230 232 241 250 258 264 268 269 271 274 279 280 278 279
207 146 269 270 274 41 35 25 14 2 347 340 337 333 326 314 311 311 306 298 285 270 255 240 230 226 217 209 211 222 230 228 233 246 257 263 266 267 267 270 274 278 282 284
323 259 267 261 285 94 50 24 12 13 15 15 15 14 8 0 354 348 342 335 323 307 284 258 239 234 229 216 215 219 222 223 230 241 252 261 265 267 271 270 271 275 278 283
322 288 276 308 29 354 31 25 23 29 30 28 26 27 26 23 17 13 10 4 355 345 330 299 268 250 238 223 220 220 222 223 229 240 248 256 261 264 267 273 274 246 242 253
Height
1517 1514 1508 1506 1506 1507 1507 1508 1512 1516 1518 1517 1517 1520 1525 1529 1531 1533 1535 1537 1539 1542 1544 1546 1547 1549 1550 1551 1552 1553 1555 1555 1555 1555 1556 1555 1555 1553 1552 1549 1546 1544 1542 1541
1511 1508 1506 1507 1507 1508 1508 1510 1513 1518 1519 1518 1518 1521 1524 1528 1530 1532 1534 1536 1539 1541 1543 1545 1547 1548 1550 1551 1551 1552 1553 1554 1554 1554 1553 1553 1552 1551 1549 1547 1544 1542 1540 1539
1509 1506 1507 1508 1507 1508 1508 1509 1511 1516 1519 1518 1520 1524 1525 1527 1530 1532 1533 1535 1537 1539 1542 1544 1546 1547 1549 1550 1550 1551 1552 1552 1552 1552 1552 1551 1549 1549 1548 1546 1544 1541 1539 1537
1504 1505 1507 1506 1506 1507 1509 1507 1510 1514 1517 1517 1520 1526 1523 1523 1526 1529 1531 1533 1535 1538 1540 1543 1544 1546 1547 1548 1549 1549 1549 1550 1549 1549 1549 1549 1549 1548 1546 1544 1542 1539 1537 1535
1504 1505 1506 1506 1507 1506 1509 1508 1509 1511 1512 1514 1516 1518 1519 1521 1524 1525 1527 1530 1533 1536 1538 1540 1542 1544 1545 1546 1547 1547 1547 1547 1547 1546 1546 1546 1546 1545 1543 1541 1539 1537 1536 1533
1504 1505 1505 1505 1507 1507 1510 1510 1511 1509 1505 1517 1518 1518 1519 1515 1517 1519 1523 1527 1530 1533 1536 1538 1540 1541 1542 1543 1544 1544 1544 1544 1544 1543 1543 1542 1542 1540 1539 1538 1537 1535 1534 1532
1504 1503 1504 1506 1507 1510 1509 1510 1514 1515 1515 1517 1516 1515 1515 1510 1513 1516 1519 1524 1527 1530 1533 1535 1537 1538 1539 1540 1541 1542 1541 1541 1541 1540 1540 1539 1538 1537 1535 1534 1534 1532 1531 1530
1507 1507 1501 1502 1503 1504 1505 1505 1518 1526 1520 1512 1514 1514 1509 1509 1513 1516 1518 1521 1524 1527 1529 1531 1533 1535 1536 1537 1538 1538 1539 1538 1538 1537 1537 1535 1534 1534 1534 1532 1530 1529 1527 1526
1503 1505 1500 1502 1502 1502 1504 1502 1501 1508 1510 1513 1510 1509 1505 1509 1511 1514 1516 1518 1521 1524 1526 1528 1530 1532 1533 1534 1535 1536 1535 1535 1535 1534 1533 1532 1531 1530 1529 1527 1526 1525 1523 1522
1500 1506 1498 1502 1502 1505 1501 1501 1504 1507 1520 1520 1513 1510 1507 1506 1507 1508 1512 1514 1517 1520 1523 1525 1527 1529 1530 1531 1532 1532 1532 1532 1531 1530 1529 1529 1527 1526 1524 1523 1522 1520 1518 1517
1499 1505 1500 1499 1501 1499 1506 1506 1504 1503 1508 1517 1518 1510 1496 1499 1501 1504 1507 1510 1513 1517 1519 1522 1524 1526 1527 1528 1529 1529 1528 1528 1527 1526 1525 1524 1523 1522 1521 1519 1518 1516 1514 1512
1500 1500 1502 1498 1496 1497 1497 1498 1502 1510 1512 1510 1510 1507 1493 1496 1498 1501 1503 1507 1510 1514 1516 1519 1521 1523 1524 1525 1526 1525 1525 1524 1524 1523 1521 1520 1519 1518 1517 1516 1514 1512 1509 1507
1501 1504 1508 1505 1504 1499 1497 1498 1499 1501 1505 1506 1509 1504 1493 1496 1498 1500 1502 1505 1508 1512 1514 1516 1518 1519 1520 1521 1522 1522 1522 1521 1520 1519 1518 1516 1515 1514 1513 1511 1509 1507 1505 1503
1502 1501 1505 1509 1502 1495 1496 1496 1497 1500 1501 1502 1500 1496 1490 1491 1494 1496 1500 1503 1505 1508 1510 1512 1514 1515 1516 1517 1518 1518 1518 1517 1516 1515 1514 1513 1511 1510 1508 1506 1504 1502 1500 1498
1501 1499 1496 1493 1490 1492 1493 1493 1492 1496 1496 1498 1493 1490 1486 1486 1490 1493 1496 1499 1502 1505 1507 1508 1510 1511 1512 1513 1513 1513 1513 1513 1512 1511 1510 1509 1508 1506 1504 1502 1499 1497 1495 1493
1499 1499 1495 1495 1489 1490 1493 1490 1489 1489 1490 1490 1489 1488 1482 1486 1490 1492 1494 1497 1499 1501 1502 1504 1506 1507 1508 1509 1509 1510 1509 1509 1508 1507 1506 1505 1503 1501 1499 1497 1495 1492 1490 1487
1494 1498 1499 1497 1487 1492 1495 1485 1485 1485 1484 1486 1487 1483 1483 1486 1488 1490 1491 1493 1495 1496 1498 1500 1502 1503 1504 1505 1505 1505 1505 1504 1503 1502 1501 1500 1499 1497 1495 1493 1490 1488 1485 1482
1495 1497 1495 1494 1495 1508 1488 1478 1480 1483 1481 1480 1481 1481 1483 1486 1487 1488 1489 1490 1491 1493 1494 1496 1497 1498 1499 1500 1500 1500 1501 1500 1499 1498 1497 1496 1494 1492 1490 1488 1485 1483 1480 1477
1493 1495 1494 1493 1495 1492 1480 1476 1478 1481 1481 1476 1478 1480 1481 1484 1485 1484 1485 1486 1487 1489 1490 1492 1493 1494 1495 1495 1496 1496 1496 1496 1495 1494 1493 1492 1490 1488 1485 1483 1480 1477 1474 1471
1494 1494 1492 1493 1500 1501 1482 1476 1479 1481 1482 1475 1478 1479 1479 1482 1480 1477 1479 1481 1483 1484 1485 1487 1488 1489 1489 1490 1490 1491 1491 1491 1491 1490 1489 1487 1485 1482 1480 1478 1475 1472 1469 1466
1489 1492 1491 1490 1493 1484 1476 1478 1480 1487 1486 1480 1479 1479 1479 1478 1478 1478 1478 1478 1479 1479 1480 1481 1482 1483 1484 1484 1485 1485 1486 1486 1485 1484 1483 1481 1479 1477 1475 1472 1469 1467 1464 1461
1481 1483 1487 1487 1492 1488 1479 1479 1481 1485 1484 1482 1481 1480 1478 1477 1476 1475 1475 1475 1475 1475 1475 1476 1476 1477 1478 1478 1479 1479 1480 1480 1480 1479 1477 1475 1474 1472 1470 1467 1464 1461 1458 1455
1477 1476 1476 1480 1482 1483 1484 1485 1487 1486 1484 1482 1480 1478 1476 1474 1472 1471 1471 1470 1470 1470 1470 1470 1470 1471 1471 1472 1473 1474 1475 1475 1474 1473 1472 1470 1468 1466 1464 1462 1459 1456 1454 1450
1473 1480 1479 1480 1476 1482 1486 1487 1487 1486 1484 1481 1479 1476 1473 1471 1469 1468 1467 1466 1465 1464 1464 1464 1464 1465 1465 1466 1467 1468 1469 1469 1468 1467 1466 1465 1463 1461 1459 1456 1454 1451 1449 1446
1477 1478 1477 1479 1479 1483 1486 1488 1488 1486 1483 1481 1478 1475 1473 1470 1468 1466 1464 1462 1461 1460 1459 1458 1458 1458 1460 1461 1462 1462 1463 1463 1462 1461 1460 1459 1457 1455 1452 1450 1447 1445 1442 1440
1480 1480 1479 1478 1486 1486 1490 1490 1488 1486 1483 1481 1478 1476 1473 1471 1469 1466 1464 1462 1460 1458 1456 1455 1454 1454 1455 1455 1456 1456 1457 1457 1455 1454 1453 1453 1451 1449 1447 1444 1442 1438 1435 1432